Aerodome Info

Curfews-

Aldinga Airfield operates under two simultaneous & overlapping curfews imposed by the Onkaparinga Council & the EPA. Breach of the the latter curfew carries financial penalties.

  • Council curfew- No operations between 10pm & sunrise (not first light).
  • EPA curfew- No operations between 9pm & 6am during daylight saving, 9pm to 7am other times. Landings only can be conducted until 10pm. Go arounds are not restricted. Continuous circuit operations are not permitted on most public holidays (note this includes December 25/26 2016 & January 1st 2017)

Runway lengths-

Runway 03/ 21- 912m, not including the turnaround nodes. These give at least another 25m of sealed surface at each end.
Runway 14/ 32- 840m.
For Aldinga Airfield first time users- the following notes should be read in conjunction with current documentation.

  • Unmarked low height airfield boundary fences are near the thresholds of runways 18, 21, 26 & 14. Avoid undershoots.
  • Strong south-easterly winds are prevalent during the months of November to March. Beware these winds often cause downdrafts on approach & departure to/ from runway 14.
  • Right hand circuits are flown on runways 18/ 21/ 26. Should a left circuit be operationally required on runway 21, this will be flown over noticably higher terrain.
  • There is a noise sensitive area to the south east of the airfield. Avoid overflight where possible.
  • After heavy rain the unsealed areas may become unusable for some time. Please contact Adelaide Biplanes to ascertain the condition of these areas if operationally required.
  • Even in dry weather, there are soft areas off the taxiways & runways that may not withstand the weight of an aircraft. Taxiing off the marked areas should only take place after an inspection of the proposed taxi route.
  • Only runway 03/ 21 (sealed) has standard runway markings (edge & threshold).
  • There is a grass airstrip immediately alongside (on the south eastern side) the sealed runway, runway 21.
  • There is a small but infrequently used grass north/ south runway half a mile to the west of Aldinga airfield. Users will broadcast on the Aldinga CTAF frequency 127.15.
  • In fine weather, circuit traffic can be heavy. Continuous circuit traffic will attempt to facilitate arrivals & departures.

Runway Approaches

Runway 03

03

21

32

14

Other Local Aerodome WX Info

Adelaide

TAF YPAD 231113Z 2312/2418 23008KT 9999 SCT035 BECMG 2313/2314 VRB03KT 9999 FEW020 SCT030 FM240100 26007KT 9999 -SHRA SCT030 FM240800 21008KT 9999 NSW FEW045 FM241200 13005KT 9999 FEW045 RMK T 11 10 08 08 Q 1031 1031 1030 1031

Parafield

TAF AMD YPPF 231345Z 2313/2324 03006KT 9999 FEW030 PROB40 2313/2321 0500 FG RMK T 09 07 06 09 Q 1031 1030 1030 1032

Kingscote

TAF YKSC 231059Z 2312/2324 VRB03KT 9999 -SHRA SCT025 BKN035 RMK T 07 06 06 06 Q 1031 1030 1030 1031

Murray Bridge

TAF YMBD 230059Z 2302/2314 21010KT 9999 SCT040 BECMG 2309/2311 30005KT 9999 FEW040 RMK T 15 16 12 08 Q 1029 1029 1029 1031